Location: Cond�
(49.0429°N, 0.1264°W)
Time: 14:42:26
(UTC+00:00)

Daily predictions for brighter satellites

Satellite Brightness Start Highest point End
(mag) Time Altitude Azimuth Time Altitude Azimuth Time Altitude Azimuth
STARLINK-1218 4.0 19:07:01 10° WNW 19:09:58 37° N 19:12:55 10° ENE
STARLINK-1226 4.0 19:07:27 10° WNW 19:10:24 37° N 19:13:22 10° ENE
STARLINK-1254 4.0 19:07:52 10° WNW 19:10:50 38° N 19:13:49 10° ENE
STARLINK-1216 4.4 19:07:00 10° W 19:11:03 50° N 19:15:06 10° ENE
STARLINK-1215 4.0 19:08:21 10° WNW 19:11:19 37° N 19:14:16 10° ENE
Cosmos 1626 Rocket 3.9 19:07:06 10° NNW 19:11:29 73° W 19:15:48 10° S
STARLINK-1231 4.0 19:08:49 10° WNW 19:11:46 37° N 19:14:43 10° ENE
STARLINK-67 3.5 19:09:28 10° WNW 19:11:53 35° N 19:14:19 10° E
STARLINK-1232 4.0 19:09:43 10° WNW 19:12:41 37° N 19:15:37 10° ENE
STARLINK-1217 4.0 19:10:10 10° WNW 19:13:07 37° N 19:16:05 10° ENE
USA 186 2.0 19:10:18 10° SSE 19:13:33 51° ENE 19:16:41 10° N
STARLINK-1208 4.0 19:10:35 10° WNW 19:13:33 38° N 19:16:32 10° ENE
STARLINK-1229 4.0 19:11:04 10° WNW 19:14:01 37° N 19:16:58 10° ENE
STARLINK-1271 4.0 19:11:32 10° WNW 19:14:28 38° N 19:17:26 10° ENE
STARLINK-1234 3.9 19:11:42 10° WNW 19:14:35 38° N 19:17:27 10° ENE
STARLINK-1270 4.0 19:12:00 10° WNW 19:14:57 37° N 19:17:53 10° ENE
STARLINK-1154 4.0 19:12:26 10° WNW 19:15:23 37° N 19:18:19 10° ENE
STARLINK-1237 4.4 19:11:59 10° W 19:16:01 49° N 19:20:04 10° ENE
STARLINK-1197 4.0 19:13:20 10° WNW 19:16:17 38° N 19:19:14 10° ENE
STARLINK-1189 4.0 19:13:47 10° WNW 19:16:45 38° N 19:19:42 10° ENE
STARLINK-1198 4.0 19:14:14 10° WNW 19:17:11 38° N 19:20:08 10° ENE
STARLINK-1209 3.8 19:14:36 10° WNW 19:17:25 38° N 19:20:15 10° ENE
STARLINK-1188 4.0 19:14:41 10° WNW 19:17:39 38° N 19:20:36 10° ENE
STARLINK-1235 3.9 19:15:22 10° WNW 19:18:22 39° N 19:21:22 10° ENE
IRIDIUM 104 4.4 19:13:31 10° N 19:18:41 58° E 19:23:48 10° SSE
STARLINK-1187 4.0 19:15:46 10° WNW 19:18:46 39° N 19:21:46 10° ENE
Cosmos 1603 3.8 19:13:36 10° S 19:19:04 55° ESE 19:24:33 10° NE
STARLINK-1199 4.0 19:16:38 10° WNW 19:19:37 38° N 19:22:36 10° ENE
STARLINK-1191 4.0 19:17:06 10° WNW 19:20:04 38° N 19:23:03 10° ENE
FREGAT/IRIS 2.3 19:17:43 10° SSE 19:20:25 63° ENE 19:23:07 10° N
STARLINK-1210 4.0 19:17:33 10° WNW 19:20:32 38° N 19:23:30 10° ENE
STARLINK-1221 4.0 19:17:59 10° WNW 19:20:59 38° N 19:23:58 10° ENE
STARLINK-1202 4.4 19:16:58 10° W 19:21:01 48° N 19:25:03 10° ENE
STARLINK-1219 4.0 19:18:26 10° WNW 19:21:25 38° N 19:24:25 10° ENE
STARLINK-1222 4.0 19:18:54 10° WNW 19:21:53 38° N 19:24:52 10° ENE
Cosmos 1602 Rocket 3.9 19:17:42 10° NNW 19:22:09 73° W 19:26:32 10° S
STARLINK-1211 4.0 19:19:22 10° WNW 19:22:20 38° N 19:25:19 10° ENE
Ariane Rocket 3.1 19:17:16 10° SSE 19:22:20 88° WSW 19:27:27 10° NNW
Cosmos 1758 3.7 19:18:28 10° SSW 19:22:34 74° W 19:26:40 10° N
STARLINK-1214 4.0 19:19:48 10° WNW 19:22:47 38° N 19:25:47 10° ENE
ATLAS 2AS CENTAUR R/B 3.1 19:15:20 10° NW 19:23:00 60° NE 19:29:59 10° ESE
STARLINK-1245 4.0 19:20:18 10° WNW 19:23:15 38° N 19:26:13 10° ENE
STARLINK-1238 4.0 19:20:42 10° WNW 19:23:41 38° N 19:26:41 10° ENE
Meteor 1-21 Rocket 4.2 19:18:58 10° N 19:24:33 85° ENE 19:30:06 10° SSE
STARLINK-1205 4.0 19:21:39 10° WNW 19:24:37 38° N 19:27:35 10° ENE
STARLINK-1204 4.0 19:22:06 10° WNW 19:25:04 38° N 19:28:02 10° ENE
STARLINK-1203 4.4 19:21:11 10° WNW 19:25:17 48° N 19:29:22 10° ENE
USA 234 4.3 19:20:30 10° ENE 19:25:18 21° SE 19:30:04 10° S
Resurs 01 Rocket 2.8 19:21:52 10° ESE 19:25:27 25° ENE 19:29:04 10° N
MOS 1 4.3 19:21:09 10° SSE 19:26:47 79° ENE 19:32:29 10° NNW
Cosmos 2154 Rocket 4.5 19:21:36 10° N 19:27:39 43° ENE 19:33:38 10° SE
IRIDIUM 114 4.3 19:22:38 10° N 19:27:52 69° E 19:33:03 10° SSE
Meteor 1-16 Rocket 4.4 19:23:45 10° SSE 19:28:54 48° E 19:34:14 10° NNE
Cosmos 2315 Rocket 4.4 19:24:34 10° SSW 19:30:53 72° W 19:37:18 10° N
SeaSat 1 3.1 19:26:08 10° NNE 19:31:00 60° NW 19:35:51 10° SW
STARLINK-1246 4.4 19:26:59 10° WNW 19:31:02 48° N 19:35:03 10° ENE
SL-4 R/B 2.6 19:28:18 10° SSW 19:31:10 26° SE 19:33:43 12° E
Nadezhda 1 Rocket 4.5 19:26:05 10° SSE 19:31:58 41° E 19:37:51 10° NNE
Aureole 3 4.1 19:27:46 10° S 19:32:28 87° E 19:38:35 10° N
STARLINK-1201 4.0 19:30:16 10° WNW 19:33:23 40° N 19:36:24 11° ENE
Cosmos 1726 Rocket 4.2 19:30:20 10° SSE 19:34:18 34° E 19:38:19 10° NNE
STARLINK-1224 4.4 19:31:59 10° WNW 19:36:02 47° N 19:40:02 10° ENE
Cosmos 1340 Rocket 4.1 19:33:00 10° SE 19:36:04 21° E 19:39:09 10° NE
IRIDIUM 103 4.3 19:31:48 10° N 19:37:03 82° E 19:42:16 10° S
ATLAS 5 CENTAUR R/B 3.0 19:34:39 10° SSE 19:37:15 16° ESE 19:40:00 10° ENE
CZ-4 R/B 4.4 19:35:33 10° SW 19:37:41 14° W 19:39:49 10° NW
Cosmos 1825 Rocket 3.5 19:34:49 10° N 19:39:14 69° E 19:43:34 10° SSE
Cosmos 1328 4.1 19:35:21 10° N 19:39:16 48° ENE 19:43:08 10° SSE
STARLINK-1225 4.4 19:37:01 10° WNW 19:41:03 47° N 19:45:04 10° ENE
Cosmos 1703 3.4 19:40:46 10° N 19:44:41 57° ENE 19:48:35 10° SSE
STARLINK-1230 4.4 19:42:01 10° WNW 19:46:03 47° N 19:49:51 11° ENE
Cosmos 614 Rocket 4.4 19:43:43 10° S 19:48:36 41° ESE 19:53:28 10° NE
Cosmos 1943 Rocket 3.5 19:43:50 10° NW 19:48:56 38° WSW 19:54:03 10° S
Abrixas rocket 1.8 19:47:38 10° W 19:50:36 81° S 19:52:19 22° E
Cosmos 2369 Rocket 3.1 19:45:29 10° NW 19:50:57 49° WSW 19:56:21 10° S
Cosmos 1300 4.3 19:50:48 16° E 19:50:58 16° E 19:53:24 10° NE
STARLINK-1243 4.4 19:46:59 10° WNW 19:51:01 47° N 19:54:37 13° ENE
SPOT 3 Rocket 3.5 19:46:38 10° SSE 19:51:50 75° ENE 19:57:03 10° NNW
Cosmos 1758 Rocket 3.7 19:47:40 10° NNW 19:52:01 75° W 19:56:19 10° S
Cosmos 2074 Rocket 4.1 19:45:52 10° N 19:52:11 87° W 19:58:29 10° S
COSMOS 2455 3.4 19:46:38 10° NNW 19:52:24 44° NE 19:56:39 18° ESE
SL-24 R/B 3.9 19:49:24 10° NNE 19:53:35 54° E 19:57:19 10° S
Cosmos 1437 3.2 19:51:27 10° NNW 19:54:27 56° W 19:57:24 10° S
Cosmos 921 Rocket 3.7 19:51:13 10° N 19:55:04 34° ENE 19:57:12 21° ESE
CZ-2C R/B 3.8 19:50:46 10° NNE 19:55:29 61° ESE 20:00:04 10° S
STARLINK-1236 4.4 19:52:01 10° WNW 19:56:03 48° N 19:59:25 14° ENE
Cosmos 1953 3.1 19:54:24 10° SSW 19:58:17 54° WNW 20:02:14 10° N
Cosmos 1953 Rocket 3.5 19:55:06 10° N 19:59:37 76° E 20:04:01 10° SSE
Cosmos 407 Rocket 3.8 19:55:06 10° S 19:59:56 43° ESE 20:04:46 10° NE
Cosmos 2228 2.9 19:56:17 10° S 20:00:33 72° E 20:04:53 10° NNE
Cosmos 1606 Rocket 3.5 19:58:44 10° S 20:03:10 81° E 20:07:39 10° NNE
Cosmos 1908 3.1 19:59:55 10° S 20:03:43 64° E 20:07:35 10° NNE
STARLINK-1269 4.3 20:02:02 10° WNW 20:06:04 48° N 20:09:00 17° ENE
Cosmos 1818 3.5 20:02:11 10° SSW 20:07:37 78° SE 20:13:05 10° NE
Cosmos 1610 Rocket 4.4 20:02:00 10° N 20:08:15 83° E 20:14:23 10° S
ATLAS CENTAUR R/B 3.9 20:07:23 10° N 20:08:17 11° NNE 20:09:11 10° NNE
ERBS 4.1 20:05:40 10° NW 20:08:31 25° NNE 20:10:29 15° ENE
ERS-1 Rocket 4.4 20:07:39 18° E 20:09:29 21° ENE 20:13:13 10° N
STARLINK-1200 4.3 20:07:01 10° WNW 20:11:04 49° N 20:13:46 19° ENE
SL-08 RB Rocket 4.3 20:07:27 10° S 20:11:56 59° W 20:16:30 10° NNW
Meteor 1-11 4.2 20:08:33 10° N 20:14:22 85° E 20:19:34 13° SSE
STARLINK-1192 4.3 20:12:00 10° WNW 20:16:03 49° N 20:18:33 21° ENE
Cosmos 1943 3.4 20:11:30 10° SW 20:17:10 73° WNW 20:22:53 10° NNE
APEX 4.4 20:10:32 10° NNW 20:17:18 89° WSW 20:21:10 22° SSE
Cosmos 1461 3.1 20:13:06 10° NW 20:17:37 71° NE 20:19:51 30° SE
MetOp-B 4.4 20:15:08 24° SE 20:18:11 51° ENE 20:23:23 10° N
CZ-2C R/B 4.3 20:15:03 10° SSW 20:19:33 36° W 20:23:59 10° NNW
STARLINK-1244 4.3 20:17:00 10° WNW 20:21:04 50° N 20:23:20 23° ENE
STARLINK-1138 4.2 20:21:58 10° WNW 20:26:02 51° N 20:28:06 26° ENE
SAR-Lupe-2 4.0 20:23:19 10° NNE 20:26:38 40° E 20:26:38 40° E
Cosmos 1295 Rocket 4.5 20:22:31 10° N 20:28:51 87° E 20:34:10 15° S
H-2A R/B 3.9 20:24:28 10° SSW 20:28:59 29° W 20:33:27 10° NNW
CZ-4C R/B 4.2 20:25:29 10° NW 20:31:00 28° NNE 20:37:07 11° ENE
STARLINK-1143 4.2 20:26:56 10° WNW 20:31:01 52° N 20:32:52 29° ENE
Cosmos 1023 Rocket 4.4 20:26:39 10° S 20:31:44 60° ESE 20:36:48 10° NNE
STARLINK-1228 2.6 20:29:27 10° WNW 20:32:22 75° NNE 20:32:28 73° NE
Cosmos 1697 Rocket 4.4 20:28:45 10° N 20:32:54 20° NE 20:35:27 15° ENE
Cosmos 1076 Rocket 4.3 20:30:49 10° N 20:34:43 33° ENE 20:35:03 32° E
STARLINK-1241 4.1 20:31:58 10° WNW 20:36:03 54° N 20:37:41 32° ENE
Resurs 1-3 4.3 20:33:01 14° S 20:36:40 52° W 20:40:58 10° NNW
SPOT 5 3.8 20:36:47 25° ENE 20:37:09 25° ENE 20:40:41 10° N
Cosmos 1726 4.4 20:34:39 10° SW 20:37:52 26° WNW 20:41:05 10° NNW
CZ-2C R/B 2.5 20:33:09 10° NNE 20:38:22 89° E 20:43:34 10° SSW
STARLINK-1239 4.1 20:36:57 10° WNW 20:41:02 55° NNE 20:42:27 36° ENE
Iridium 2 4.3 20:42:00 39° ENE 20:42:00 39° ENE 20:45:09 10° NNE
NOSS 3-4 (A) 4.1 20:34:45 10° NW 20:41:39 66° SW 20:46:22 25° SSE
NOSS 3-4 (C) 4.1 20:34:51 10° NW 20:41:46 67° SW 20:46:27 25° SSE
STARLINK-60 4.3 20:38:50 10° SW 20:40:40 29° SSW 20:40:40 29° SSW
Cosmos 2341 Rocket 4.0 20:36:11 10° N 20:42:37 83° E 20:46:39 24° SSE
STARLINK-1233 3.0 20:40:12 10° WNW 20:43:19 70° NNE 20:43:19 70° NNE
STARLINK-1212 3.0 20:40:39 10° WNW 20:43:45 70° NNE 20:43:45 70° NNE
Aureole 1 Rocket 4.2 20:36:18 10° SSW 20:43:57 85° WNW 20:49:54 10° NNE
STARLINK-1105 3.0 20:41:06 10° WNW 20:44:12 70° NNE 20:44:12 70° NNE
Cosmos 2058 3.5 20:40:26 10° N 20:44:17 38° ENE 20:44:18 38° ENE
STARLINK-1206 3.0 20:41:35 10° WNW 20:44:37 70° N 20:44:37 70° N
STARLINK-1247 3.0 20:42:03 10° WNW 20:45:03 70° N 20:45:03 70° N
STARLINK-1227 3.0 20:42:27 10° WNW 20:45:29 70° N 20:45:29 70° N
STARLINK-67 3.9 20:43:23 10° WNW 20:45:07 36° W 20:45:07 36° W
STARLINK-1240 4.0 20:41:57 10° WNW 20:46:02 56° NNE 20:47:15 40° ENE
STARLINK-1218 3.0 20:42:57 10° WNW 20:45:55 70° N 20:45:55 70° N
STARLINK-1226 3.0 20:43:22 10° WNW 20:46:21 70° N 20:46:21 70° N
STARLINK-1254 3.0 20:43:47 10° WNW 20:46:47 70° N 20:46:47 70° N
STARLINK-1215 3.0 20:44:18 10° WNW 20:47:13 69° NNW 20:47:13 69° NNW
STARLINK-1231 3.1 20:44:44 10° WNW 20:47:39 69° NNW 20:47:39 69° NNW
Cosmos 1763 Rocket 4.3 20:43:43 10° N 20:48:30 35° NE 20:49:35 32° E
STARLINK-1232 3.1 20:45:39 10° WNW 20:48:31 68° NNW 20:48:31 68° NNW
STARLINK-1217 3.1 20:46:05 10° WNW 20:48:57 68° NNW 20:48:57 68° NNW
STARLINK-1208 3.1 20:46:30 10° WNW 20:49:24 68° NNW 20:49:24 68° NNW
STARLINK-1229 3.1 20:46:59 10° WNW 20:49:48 66° NNW 20:49:48 66° NNW
STARLINK-1234 3.2 20:47:16 10° WNW 20:49:52 61° WNW 20:49:52 61° WNW
STARLINK-1271 3.1 20:47:26 10° WNW 20:50:15 66° NW 20:50:15 66° NW
STARLINK-1270 3.2 20:47:55 10° WNW 20:50:42 65° NW 20:50:42 65° NW
STARLINK-1216 4.0 20:46:56 10° WNW 20:51:03 58° NNE 20:52:03 44° ENE
STARLINK-1154 3.2 20:48:20 10° WNW 20:51:06 64° NW 20:51:06 64° NW
STARLINK-1197 3.2 20:49:15 10° WNW 20:51:59 63° NW 20:51:59 63° NW
STARLINK-1189 3.3 20:49:41 10° WNW 20:52:25 62° NW 20:52:25 62° NW
STARLINK-1209 3.5 20:50:01 10° WNW 20:52:23 52° WNW 20:52:23 52° WNW
STARLINK-1198 3.3 20:50:09 10° WNW 20:52:50 62° NW 20:52:50 62° NW
STARLINK-1188 3.3 20:50:36 10° WNW 20:53:17 61° NW 20:53:17 61° NW
STARLINK-1235 3.3 20:51:14 10° WNW 20:53:55 60° WNW 20:53:55 60° WNW
STARLINK-1187 3.3 20:51:40 10° WNW 20:54:21 61° WNW 20:54:21 61° WNW
Terra 2.8 20:55:02 29° ENE 20:55:18 30° ENE 20:59:26 10° N
STARLINK-1199 3.4 20:52:32 10° WNW 20:55:12 60° NW 20:55:12 60° NW
STARLINK-1237 3.9 20:51:55 10° WNW 20:56:02 60° NNE 20:56:49 49° ENE
RESURS DK-1 4.1 20:52:54 10° N 20:56:08 21° NE 20:56:27 21° NE
STARLINK-1191 3.4 20:53:00 10° WNW 20:55:38 59° NW 20:55:38 59° NW
STARLINK-1210 3.4 20:53:26 10° WNW 20:56:04 58° NW 20:56:04 58° NW
STARLINK-1221 3.5 20:53:54 10° WNW 20:56:30 57° NW 20:56:30 57° NW
STARLINK-1219 3.5 20:54:20 10° WNW 20:56:56 57° NW 20:56:56 57° NW
STARLINK-1222 3.5 20:54:48 10° WNW 20:57:22 56° WNW 20:57:22 56° WNW
STARLINK-1211 3.5 20:55:15 10° WNW 20:57:48 55° WNW 20:57:48 55° WNW
Cosmos 2058 Rocket 3.8 20:54:19 10° SSW 20:58:44 54° WNW 21:03:11 10° N
STARLINK-1214 3.6 20:55:42 10° WNW 20:58:14 54° WNW 20:58:14 54° WNW
STARLINK-1245 3.6 20:56:11 10° WNW 20:58:39 52° WNW 20:58:39 52° WNW
STARLINK-1238 3.6 20:56:35 10° WNW 20:59:06 53° WNW 20:59:06 53° WNW
Cosmos 2218 Rocket 3.9 20:53:54 10° N 21:00:07 71° E 21:02:25 41° SSE
Cosmos 192 4.5 20:55:27 10° NNW 21:00:21 57° ENE 21:01:06 51° E
STARLINK-1205 3.7 20:57:32 10° WNW 20:59:57 50° WNW 20:59:57 50° WNW
STARLINK-1202 3.8 20:56:53 10° WNW 21:01:01 62° NNE 21:01:35 55° ENE
STARLINK-1204 3.7 20:57:59 10° WNW 21:00:23 49° WNW 21:00:23 49° WNW
Cosmos 1980 Rocket 4.0 20:57:11 10° N 21:01:08 19° NE 21:03:10 16° ENE
MOS 1 Rocket 4.2 20:55:56 10° N 21:01:10 57° WNW 21:06:28 10° SSW
Resurs 01 Rocket 2.7 20:59:16 21° SSW 21:01:45 41° W 21:05:58 10° NNW
Cosmos 1892 3.4 20:58:46 10° N 21:01:53 41° NE 21:01:53 41° NE
STARLINK-1203 3.7 21:01:17 10° WNW 21:05:29 67° NNE 21:05:52 62° NE
USA 234 3.1 21:02:35 10° ENE 21:09:07 68° SE 21:15:38 10° SW
Cosmos 1656 4.2 21:04:02 10° NNW 21:09:32 46° NE 21:10:37 41° E
STARLINK-1201 4.0 21:06:34 10° WNW 21:08:57 45° WNW 21:08:57 45° WNW
CARTOSAT-1 3.9 21:10:07 51° ENE 21:10:07 51° ENE 21:14:07 10° N
SL-4 R/B 2.6 21:07:02 10° WSW 21:09:21 41° W 21:09:21 41° W
USA 245 4.4 21:08:37 39° S 21:10:52 79° WSW 21:17:13 10° NNW
Iridium 4 Rocket 2.9 21:06:40 10° N 21:10:42 68° ENE 21:10:42 68° ENE
STARLINK-1246 3.7 21:06:51 10° WNW 21:11:00 67° NNE 21:11:09 66° NE
Cosmos 1190 Rocket 4.5 21:06:52 10° SW 21:12:07 61° WNW 21:17:23 10° NNE
Cosmos 1340 Rocket 4.2 21:08:30 10° SW 21:12:18 37° WNW 21:16:06 10° N
Cosmos 1140 Rocket 3.8 21:07:59 10° SSW 21:13:09 67° WNW 21:18:19 10° NNE
Spot 2 Rocket 3.7 21:11:43 41° S 21:13:27 67° WSW 21:18:34 10° NNW
ATLAS 2AS CENTAUR R/B 3.7 21:06:48 10° NW 21:13:46 42° WSW 21:17:27 24° S
Cosmos 2181 Rocket 3.9 21:12:14 29° S 21:15:42 89° E 21:21:56 10° N
STARLINK-1224 3.7 21:11:50 10° WNW 21:15:55 70° NNE 21:15:55 70° NNE
Cosmos 1825 4.0 21:14:40 10° N 21:16:32 22° NE 21:16:32 22° NE
SL-8 Rocket 4.1 21:14:17 10° NNW 21:20:36 73° W 21:23:20 36° S
STARLINK-1225 3.8 21:16:50 10° WNW 21:20:44 70° NNW 21:20:44 70° NNW
ATLAS 5 CENTAUR R/B 1.7 21:16:55 10° SW 21:21:08 74° NW 21:25:56 10° NE
Cosmos 841 Rocket 4.2 21:19:02 10° NNW 21:23:59 39° ENE 21:24:13 39° ENE
Cosmos 864 Rocket 4.4 21:17:50 10° N 21:24:07 87° W 21:25:58 49° S
STARLINK-1230 3.9 21:21:49 10° WNW 21:25:30 66° NW 21:25:30 66° NW
Cosmos 1300 3.7 21:25:41 40° WSW 21:26:16 43° WNW 21:29:57 10° N
Cosmos 1570 Rocket 4.4 21:24:26 10° NNW 21:29:41 51° ENE 21:29:51 51° ENE
IGS 5A 3.8 21:29:45 59° W 21:29:45 59° W 21:33:51 10° NNW
In-Cosmos 22 Rocket 4.4 21:24:44 10° NNW 21:30:34 71° W 21:32:08 49° SSW
STARLINK-1243 4.0 21:26:46 10° WNW 21:30:16 61° NW 21:30:16 61° NW
Cosmos 2366 rocket 4.0 21:26:05 10° NNW 21:32:14 74° W 21:34:07 46° SSW
Meteor 2-12 Rocket 4.3 21:26:18 10° N 21:32:28 90° E 21:33:43 59° S
Cosmos 1812 Rocket 3.7 21:33:49 70° NNW 21:33:49 70° NNW 21:37:48 10° N
Mayak 1.2 21:30:03 10° NE 21:30:34 13° NE 21:30:34 13° NE
Cosmos 468 Rocket 3.8 21:28:24 10° NNW 21:33:37 88° ENE 21:33:48 84° SE
STARLINK-1236 4.2 21:31:46 10° WNW 21:35:04 55° WNW 21:35:04 55° WNW
ASTEX 1 4.4 21:39:12 34° NE 21:39:12 34° NE 21:42:50 10° N
COSMOS 2455 3.6 21:32:42 10° NW 21:38:23 44° WSW 21:39:49 38° SSW
COSMOS 2406 4.2 21:45:30 34° ENE 21:45:30 34° ENE 21:48:57 10° NE
Nadezhda 3 Rocket 4.2 21:43:48 53° E 21:43:48 53° E 21:49:43 10° NNE
Cosmos 1833 Rocket 4.5 21:47:50 18° ENE 21:47:50 18° ENE 21:49:35 10° NE
ERS-1 Rocket 3.1 21:47:39 64° WSW 21:47:50 65° WSW 21:52:51 10° NNW
ATLAS CENTAUR R/B 3.1 21:45:02 10° NNW 21:47:36 26° NNE 21:47:36 26° NNE
Meteor 2-1 Rocket 4.4 21:53:34 55° SW 21:54:48 73° WNW 22:00:46 10° N
SPOT 1/Viking Rocket 4.3 21:55:08 42° WSW 21:55:50 45° W 22:00:52 10° NNW
Cosmos 2369 3.8 22:00:26 10° NNW 22:05:45 65° NE 22:05:45 65° NE
Cosmos 1741 Rocket 4.3 22:07:29 64° NNE 22:07:29 64° NNE 22:11:59 10° NNE
Cosmos 2208 Rocket 4.2 22:01:39 10° NNW 22:06:09 66° N 22:06:09 66° N
Cosmos 2151 4.3 22:06:02 10° NNW 22:08:48 38° NNW 22:08:48 38° NNW
Cosmos 2239 Rocket 4.4 22:05:06 10° N 22:11:22 83° ENE 22:11:22 83° ENE
Meteor 2-10 Rocket 3.8 22:12:36 64° N 22:12:36 64° N 22:17:09 10° N
Cosmos 489 Rocket 4.4 22:06:43 10° NNW 22:12:55 77° WSW 22:13:00 76° WSW
Cosmos 1821 Rocket 3.9 22:07:55 10° N 22:14:19 84° W 22:14:33 82° SW
SPOT 5 4.0 22:16:00 35° WNW 22:16:00 35° WNW 22:19:11 10° NNW
Cosmos 1697 Rocket 2.8 22:12:05 10° NNW 22:17:11 71° N 22:17:11 71° N
CZ-4C R/B 3.1 22:14:02 10° NW 22:20:54 60° NE 22:22:18 53° E
Cosmos 1934 Rocket 4.0 22:16:30 10° N 22:22:23 70° NE 22:22:23 70° NE
Meteor 2-3 Rocket 4.0 22:21:46 10° N 22:26:44 65° NNE 22:26:44 65° NNE
SL-16 R/B 3.7 22:27:14 10° NNW 22:31:56 26° NE 22:32:21 25° NE
Terra 3.1 22:33:54 35° WNW 22:33:54 35° WNW 22:37:25 10° NNW
Cosmos 1605 Rocket 4.3 22:27:15 10° N 22:32:34 55° NE 22:32:34 55° NE
RESURS DK-1 4.4 22:30:25 10° NW 22:32:20 26° NW 22:32:20 26° NW
Cosmos 2360 Rocket 4.4 22:34:15 10° N 22:37:46 17° NE 22:39:34 14° ENE
Cosmos 2322 Rocket 3.8 22:37:08 10° NNW 22:41:49 26° NE 22:42:08 25° NE
Cosmos 540 Rocket 4.5 22:40:36 10° NNW 22:44:14 42° NW 22:44:14 42° NW
Cosmos 1980 Rocket 2.7 22:40:28 10° NNW 22:44:56 56° N 22:44:56 56° N
USA 234 3.7 22:45:42 10° ENE 22:52:06 58° NNW 22:58:28 10° W
ATLAS 5 CENTAUR R/B 4.1 23:03:06 10° WNW 23:06:39 22° NNW 23:10:36 10° NNE
BREEZE M DEB (TANK) 4.4 23:03:09 10° W 23:08:44 88° N 23:32:08 10° E
Mayak 1.1 23:05:19 10° N 23:07:09 23° NNW 23:07:09 23° NNW
Cosmos 2082 Rocket 3.3 23:15:17 38° NNE 23:15:17 38° NNE 23:18:44 10° NNE
Cosmos 2344 4.3 23:06:31 10° NW 23:16:00 87° SW 23:18:39 61° SSE
COSMOS 2406 4.5 23:27:29 35° WNW 23:27:58 35° NW 23:33:13 10° NNE
Cosmos 1833 Rocket 3.6 23:29:29 45° NNW 23:29:29 45° NNW 23:33:56 10° NNE
Cosmos 1459 Rocket 4.4 23:42:36 10° N 23:47:45 59° N 23:47:45 59° N
Cosmos 1727 Rocket 4.5 23:51:23 58° NNW 23:51:23 58° NNW 23:56:30 10° N
